Weather History for San Jose, Costa Rica

Change the Weather History Date:

Saturday, January 14, 2012

  Actual Average Record
Temperature  
Mean Temperature 68 °F -  
Max Temperature 82 °F 80 °F 86 °F (2001)
Min Temperature 53 °F 63 °F 59 °F (1999)
Cooling Degree Days 2    
Growing Degree Days 18 (Base 50)    
Moisture  
Dew Point 56 °F    
Average Humidity 54    
Maximum Humidity 68    
Minimum Humidity 42    
Precipitation  
Precipitation 0.00 in 0.01 in - ()
Sea Level Pressure  
Sea Level Pressure 30.00 in    
Wind  
Wind Speed 11 mph ()    
Max Wind Speed 16 mph    
Max Gust Speed 28 mph    
Visibility 7.4 miles    
Events      
Averages and records for this station are not official NWS values.
T = Trace of Precipitation, MM = Missing Value Source: Averaged Metar Reports

Daily Weather History Graph

Daily Weather History Graph

Search for Another Location

Airport:

Trip Planner

Search our weather history database for the weather conditions in past years. The results will help you decide how hot, cold, wet, or windy it might be!

Date:

Astronomy

Jan. 14, 2012 Rise Set
Actual Time 5:57 AM CST 5:33 PM CST
Civil Twilight 5:35 AM CST 5:56 PM CST
Nautical Twilight 5:09 AM CST 6:22 PM CST
Astronomical Twilight 4:43 AM CST 6:48 PM CST
Moon 10:32 PM CST (1/14) 9:56 AM CST (1/14)
Length of Visible Light 12h 20m
Length of Day
11h 35m
Waning Gibbous, 68% of the Moon is Illuminated
Jan 14
Waning Gibbous
Jan 16
Last Quarter
Jan 23
New
Jan 30
First Quarter
Feb 7
Full

Hourly Weather History & Observations

Time (CST) Temp. Heat Index Dew Point Humidity Pressure Visibility Wind Dir Wind Speed Gust Speed Precip Events Conditions
12:00 AM 69 °F - 53 °F 47% 29.85 in 12 mi East 13.8 mph - -  
12:00 AM 68.0 °F - 53.6 °F 60% 30.02 in 6.2 mi East 13.8 mph - N/A   Unknown
1:00 AM 68.0 °F - 53.6 °F 60% 30.01 in 6.2 mi East 13.8 mph - N/A   Unknown
2:00 AM 69.8 °F - 48.2 °F 46% 30.00 in 6.2 mi East 10.4 mph - N/A   Unknown
3:00 AM 67 °F - 50 °F 43% 29.85 in 12 mi ESE 12.7 mph - -  
3:00 AM 68.0 °F - 50.0 °F 52% 30.00 in 6.2 mi ESE 12.7 mph - N/A   Unknown
4:00 AM 68.0 °F - 51.8 °F 56% 30.01 in 6.2 mi East 11.5 mph - N/A   Clear
5:00 AM 68.0 °F - 53.6 °F 60% 30.01 in 6.2 mi East 12.7 mph - N/A   Clear
6:00 AM 67 °F - 53 °F 51% 29.89 in 12 mi East 9.2 mph - -  
6:00 AM 66.2 °F - 53.6 °F 64% 30.03 in 6.2 mi East 9.2 mph - N/A   Unknown
7:00 AM 69.8 °F - 53.6 °F 56% 30.04 in 6.2 mi East 12.7 mph - N/A   Unknown
8:00 AM 73.4 °F - 51.8 °F 47% 30.07 in 6.2 mi East 11.5 mph 23.0 mph N/A   Unknown
9:00 AM 75.2 °F - 51.8 °F 44% 30.06 in - East 16.1 mph 27.6 mph N/A   Clear
10:00 AM 78.8 °F - 55.4 °F 44% 30.06 in - East 16.1 mph 27.6 mph N/A   Clear
11:00 AM 80.6 °F 80.5 °F 55.4 °F 42% 30.04 in - ESE 13.8 mph 25.3 mph N/A   Clear
12:00 PM 82.4 °F 82.0 °F 57.2 °F 42% 30.02 in 6.2 mi East 16.1 mph 27.6 mph N/A   Unknown
1:00 PM 82.4 °F 82.0 °F 57.2 °F 42% 29.99 in 6.2 mi East 13.8 mph 25.3 mph N/A   Partly Cloudy
2:00 PM 80.6 °F 81.1 °F 59.0 °F 48% 29.98 in 6.2 mi East 13.8 mph 25.3 mph N/A   Scattered Clouds
3:00 PM 79 °F - 62 °F 45% 29.83 in 12 mi ESE 13.8 mph - -   Mostly Cloudy
3:00 PM 78.8 °F - 60.8 °F 54% 29.98 in 6.2 mi ESE 13.8 mph 25.3 mph N/A   Scattered Clouds
4:00 PM 77.0 °F - 60.8 °F 57% 29.98 in 6.2 mi East 11.5 mph 23.0 mph N/A   Scattered Clouds
5:00 PM 73.4 °F - 57.2 °F 57% 30.01 in 6.2 mi East 12.7 mph 24.2 mph N/A   Mostly Cloudy
6:00 PM 69.8 °F - 57.2 °F 64% 29.98 in 6.2 mi ESE 12.7 mph 25.3 mph N/A   Mostly Cloudy
7:00 PM - - 69.8 °F N/A% 30.06 in - North - - N/A   Unknown
8:00 PM 69.8 °F - 59.0 °F 68% 30.07 in - ESE 12.7 mph - N/A   Clear
9:00 PM 69 °F - 58 °F 60% 29.94 in 12 mi East 12.7 mph - -  
9:00 PM 69.8 °F - 59.0 °F 68% 30.08 in 6.2 mi East 12.7 mph - N/A   Unknown
10:00 PM 69.8 °F - 59.0 °F 68% 30.08 in 6.2 mi East 9.2 mph 23.0 mph N/A   Unknown
11:00 PM 69.8 °F - 59.0 °F 68% 30.07 in 6.2 mi East 9.2 mph - N/A   Unknown